Location: Boiro
(42.6475°N, 8.8834°W)
Time: 00:40:19
(UTC+01:00)

Tiros 1 despin weight - Pass Details

Date: 04 December 2021
Orbit: 592 x 641 km, 48.2° (Epoch: 23 January)

Event Time Altitude Azimuth Distance (km) Brightness Sun altitude
Rises 21:25:10 0° 286° (WNW) 2,828 ? -36.6°
Reaches altitude 10° 21:28:03 10° 267° (W) 1,927 ? -37.1°
Enters shadow 21:28:56 13° 257° (WSW) 1,725 ? -37.3°
Maximum altitude 21:30:59 18° 225° (SW) 1,502 - -37.6°
Drops below altitude 10° 21:33:55 10° 183° (S) 1,934 - -38.2°
Sets 21:36:50 0° 164° (SSE) 2,842 - -38.7°
